Flag for Germany Weather past 2 weeks in Cottbus, Brandenburg, Germany

Now
75 °F

Scattered clouds.


Feels Like: 78 °F
Forecast: 56 / 79 °F
Wind: 2 mph from Northeast

Location: Cottbus

Current Time: Jun 30, 2015 at 1:08:33 PM

Latest Report: Jun 30, 2015 at 12:00 PM


Visibility: 31 mi

Pressure: 30.17 "Hg

Humidity: 50%

Dew point: 55 °F

Location of CottbusLocation

Historic Weather in Cottbus — Graph

°F

Cottbus temperature yesterday

Maximum temperature yesterday: 79 °F (at 4:00 PM)
Minimum temperature yesterday: 54 °F (at 1:00 AM)
Average temperature yesterday: 66 °F

Past Weeks' High & Low Weather Summary

 TemperatureHumidityPressure
High79 °F (Jun 29, 4:00 PM)100% (Jun 23, 5:00 AM)30.25 "Hg (Jun 23, 5:00 AM)
Low40 °F (Jun 17, 4:00 AM)31% (Jun 17, 6:00 PM)29.64 "Hg (Jun 23, 7:00 AM)
Average59 °F74%30.03 "Hg
* Reported Jun 15 12:00 Noon — Jun 30 12:00 Noon, Cottbus, Weather by CustomWeather, © 2015

Note: Actual official high and low records may vary slightly from our data, if they occured in-between our weather recording intervals... More about our weather records

Advertising

Cottbus weather history for previous 24 hours

 ConditionsComfort  
Time TempWeatherWind HumidityBarometerVisibility
12:00 PM
Tue, Jun 30
75 °FScattered clouds.2 mph50%30.17 "Hg31 mi
11:00 AM73 °FOvercast.3 mph52%30.16 "Hg28 mi
10:00 AM70 °FOvercast.2 mph59%30.16 "Hg28 mi
9:00 AM68 °FOvercast.3 mph64%30.16 "Hg19 mi
8:00 AM64 °FOvercast.1 mph78%30.14 "Hg11 mi
7:00 AM61 °FOvercast.1 mph86%30.13 "Hg12 mi
5:00 AM59 °FOvercast.1 mph91%30.11 "Hg11 mi
4:00 AM59 °FOvercast.1 mph90%30.11 "Hg12 mi
3:00 AM60 °FOvercast.2 mph86%30.12 "Hg17 mi
2:00 AM60 °FOvercast.1 mph86%30.11 "Hg18 mi
1:00 AM63 °FOvercast.1 mph75%30.11 "Hg22 mi
12:00 AM64 °FOvercast.2 mph73%30.12 "Hg22 mi
11:00 PM
Mon, Jun 29
67 °FOvercast.2 mph65%30.11 "Hg25 mi
10:00 PM69 °FClear.2 mph60%30.11 "Hg28 mi
9:00 PM73 °FPartly sunny.2 mph51%30.10 "Hg37 mi
8:00 PM76 °FPartly sunny.3 mph43%30.09 "Hg43 mi
7:00 PM77 °FPartly sunny.2 mph41%30.09 "Hg43 mi
6:00 PM78 °FOvercast.1 mph40%30.09 "Hg43 mi
5:00 PM77 °FOvercast.1 mph41%30.09 "Hg43 mi
4:00 PM79 °FScattered clouds.3 mph37%30.10 "Hg31 mi
3:00 PM75 °FPartly sunny.2 mph43%30.11 "Hg43 mi
2:00 PM76 °FPartly sunny.1 mph40%30.12 "Hg43 mi
1:00 PM74 °FHaze.3 mph46%30.13 "Hg28 mi
Weather by CustomWeather, © 2015

See weather overviewHow to use our weather pages